Regional Weather Roundup
Issued by NWS San Diego, CA

Home | Current Version | Previous Version | Text Only | Print | Product List | Glossary On
Versions: 1 2 3 4 5 6 7 8 9 10 11 12 13 14 15 16 17 18 19 20 21 22 23 24 25 26 27
000
ASUS46 KSGX 241411
RWRSGX

SAN DIEGO HOURLY WEATHER ROUNDUP
NATIONAL WEATHER SERVICE SAN DIEGO CA
700 AM PDT TUE APR 24 2018

NOTE: "FAIR" INDICATES FEW OR NO CLOUDS BELOW 12,000 FEET WITH NO
SIGNIFICANT WEATHER AND/OR OBSTRUCTIONS TO VISIBILITY.

CAZ042-043-060-061-PZZ750-775-241500-

GREATER SAN DIEGO AREA

CITY           SKY/WX    TMP DP  RH WIND       PRES   REMARKS
SAN DIEGO AP   CLOUDY    57  54  89 NW5       30.03R FOG
NATIONAL CITY    N/A     58  56  92 CALM      30.02R
CHULA VISTA      N/A     57  56  95 CALM      29.93R
IMPERIAL BEACH CLOUDY    58  54  86 CALM      30.02R FOG
BROWN FIELD    FOG       54  54 100 CALM      30.01R VSB<1/4
MIRAMAR MCAS   FOG       58  54  86 NE3       30.01R VSB 1/2
MONTGOMERY FLD CLOUDY    56  54  93 CALM      30.01S FOG
GILLESPIE FLD  CLOUDY    55  52  88 CALM      30.01R FOG

$$

NORTH SAN DIEGO COUNTY

CITY           SKY/WX    TMP DP  RH WIND       PRES   REMARKS
CAMP PENDLETON CLOUDY    52  52 100 NE6       30.02R
OCEANSIDE AP   CLOUDY    56  53  90 NW5       30.01R FOG
OCEANSIDE HBR    N/A     56  55  95 CALM      30.04R
VISTA            N/A     53  48  83 CALM      29.99R
CARLSBAD       CLOUDY    55  55 100 CALM      30.00S FOG
DEL MAR          N/A     56  54  93 CALM      30.03R
LA JOLLA SCRIP   N/A     55  54  95 SW1       30.02R
FALLBROOK        N/A     51  51 100 CALM      30.03R
ESCONDIDO        N/A     54  50  87 CALM      30.01R
SAN MARCOS       N/A     53  50  90 CALM      30.04R
POWAY            N/A     52  48  87 CALM      30.00S

$$

EAST SAN DIEGO COUNTY

CITY           SKY/WX    TMP DP  RH WIND       PRES   REMARKS
RAMONA         CLEAR     46  43  89 SE3       30.01R
SANTEE LAKES     N/A     54  51  92 CALM      30.00S
LA MESA          N/A     54  53  95 CALM      29.94S
JAMUL            N/A     48  47  95 CALM      30.00R
CAMPO            N/A     45  32  60 NE8       30.01R

$$

ORANGE COUNTY AND THE LOS ANGELES BASIN

CITY           SKY/WX    TMP DP  RH WIND       PRES   REMARKS
JOHN WAYNE AP  CLOUDY    55  51  86 CALM      30.02R
LAGUNA BEACH     N/A     55  52  91 CALM      29.97R
LAKE FOREST FR   N/A     49  44  84 CALM      29.91R
HUNTINGTON BCH   N/A     54  52  92 W2        30.04R
FULLERTON      CLOUDY    55  52  89 E6        30.02R
LONG BEACH     CLOUDY    55  50  83 CALM      30.03R
L.A. AP        CLOUDY    55  53  93 CALM      30.02R FOG
L.A. DOWNTOWN  CLOUDY    55  52  89 CALM      30.02R FOG

$$

THE INLAND EMPIRE

CITY           SKY/WX    TMP DP  RH WIND       PRES   REMARKS
CORONA         CLEAR     51  49  92 W5        30.03R FOG
CHINO          PTCLDY    52  49  89 CALM      30.03R
ONTARIO        MOCLDY    54  49  83 CALM      30.02R
SAN BERNARDINO PTCLDY    57  41  54 CALM      30.02R
RIVERSIDE AP   PTCLDY    53  43  68 CALM      30.02R
MORENO VALLEY    N/A     56  37  47 CALM      28.13R
HORSETHIEF CYN   N/A     53  29  39 CALM      29.98R
PERRIS           N/A     53  45  75 CALM      29.95R
HEMET EAST       N/A     58  34  40 CALM      29.90R
FRENCH VALLEY  FAIR      52  41  66 CALM      30.02R
TEMECULA         N/A     51  46  84 CALM      30.06R

$$

SAN BERNARDINO AND RIVERSIDE COUNTY MOUNTAINS

CITY           SKY/WX    TMP DP  RH WIND       PRES   REMARKS
BIG BEAR AP    SUNNY     32  14  47 CALM      30.22R
ANGELUS OAKS     N/A     49  19  31 CALM      29.91R

$$

SOUTHERN DESERT INCLUDING THE COACHELLA VALLEY

CITY           SKY/WX    TMP DP  RH WIND       PRES   REMARKS
PALM SPRINGS   SUNNY     71  43  36 CALM      29.91R
THOUSAND PALMS   N/A     78  36  22 W16       29.85R
PALM DESERT      N/A     66  46  47 CALM      30.39S
THERMAL        SUNNY     72  36  26 NW3       29.86R
BLYTHE         SUNNY     69  32  25 CALM      29.90R
IMPERIAL AP    SUNNY     65  37  35 S3        29.87R
EL CENTRO NAS  MOSUNNY   63  43  48 S3        29.89R
YUMA AZ        MOSUNNY   69  39  33 NE5       29.90R
MEXICALI       MOSUNNY   63  46  55 SE5       29.89R

$$

UPPER DESERT

CITY           SKY/WX    TMP DP  RH WIND       PRES   REMARKS
VICTORVILLE AP CLEAR     54  28  37 SE7       30.03R
HESPERIA         N/A     58  33  39 W2        29.96R
APPLE VALLEY     N/A     45  38  76 S2        29.98R
PALMDALE       CLEAR     62  29  28 S7        30.02R
LANCASTER      CLEAR     56  32  40 W5        30.01R
DAGGETT        SUNNY     65  30  27 W9        29.98R
29 PALMS N     MOSUNNY   66  20  17 CALM      30.05R
NEEDLES        SUNNY     76  26  15 W6        29.91R

$$

REGIONAL REPORTS

CITY           SKY/WX    TMP DP  RH WIND       PRES   REMARKS
SANTA BARBARA  CLOUDY    51  49  92 CALM      30.01S FOG
LAS VEGAS NV   MOSUNNY   71  26  18 S5        30.00R
PHOENIX AZ     MOSUNNY   71  29  21 E9        29.93R
TIJUANA        FOG       54  54 100 CALM      30.03R VSB 3/4
ENSENADA NW      N/A     56  32  40 CALM      29.95R

$$

OFFSHORE ISLANDS

CITY           SKY/WX    TMP DP  RH WIND       PRES   REMARKS
CATALINA ARPT  FOG       49  48  97 N3        30.01R VSB<1/4
SAN NICOLAS IS FOG       50  48  93 W7        30.00S VSB 1/2

$$

MARINE AND OFFSHORE BUOY REPORTS

STATION/POSITION SKY/WX   TEMP    WIND        PRES    VSBY  SWELL
                          AIR SEA DIR/SP/G                  HT/PER/DIR
                          (F)     (DEG/KT/KT) (MB)    (MI)  (FT/S/D)
TANNER BANKS               54 58              1015.8R
S CLEMENTE BASIN           56 62  300/  6/  8 1016.4R         3/280/13
SAN NICOLAS IS.               57                N/A           5/290/13
SO. S. ROSA ISLA           50 55  270/  8/ 12 1016.0R         5/290/13
W. S. BARBARA CH              54   20/  8/ 12 1015.9
M. S. BARBARA CH           50 55   50/  6/  8 1016.9R         3/270/13
S. MONICA BASIN                   220/  4/  6 1016.1R         2/230/14
S PEDRO CHANNEL               57                N/A           2/180/13
CMP PENDLETON NS              61                N/A           2/220/13
OCEANSIDE OFFSHR              61                N/A           2/200/13
TORREY PINES OTR              61                N/A           2/220/13
SAN DIEGO BAY                 62              1016.0R
POINT LOMA SOUTH              61                N/A           3/240/13

$$





USA.gov is the U.S. government's official web portal to all federal, state and local government web resources and services.